www.pogodaiklimat.ru

Погода и климат >> Архив погоды >> Австралия >> Западная Австралия >> Дауоллину


ПОГОДА в Дауоллину

  • Прогноз погоды в Дауоллину
  • Монитор погоды в Дауоллину

АРХИВ ПОГОДЫ в Дауоллину

Время (UTC), дата Ветер
(напр.,м/с)
 
Видим.   Явления Облачность Т
(С)
Тd
(С)
f
(%)
Тe
(С)
Тes
(С)
Комфортность P
(гПа)
Po
(гПа)
Тmin
(С)
Tmax
(С)
R
(мм)
R24
(мм)
S
(см)
19 15.09 Ю 5 н/о н/о +12.1 +10.3 89 +10 +10 1020.8 982.4
22 15.09 В 5 н/о н/о +12.3 +10.2 87 +10 +10 1021.4 983.0
01 16.09 В 7 н/о н/о +18.6 +9.4 55 +18 +18 1021.7 983.3 +11.5
04 16.09 СВ 6 н/о н/о +24.8 +8.7 36 +25 +25 комфорт 1019.6 981.2
07 16.09 СВ 4 н/о н/о +28.2 +6.3 25 +27 +27 жарко 1017.2 978.9
10 16.09 З 2 н/о н/о +25.1 +5.8 29 +25 +25 комфорт 1017.2 978.9
13 16.09 ЮЗ 5 н/о н/о +19.6 +11.9 61 +21 +21 комфорт 1018.5 980.2 +29.2
16 16.09 ЮЗ 5 н/о н/о +16.5 +11.9 74 +16 +16 1017.2 978.9
19 16.09 З 4 н/о н/о +14.5 +11.3 81 +13 +13 1016.2 978.0
22 16.09 З 4 н/о н/о +11.8 +10.9 94 +10 +10 1017.3 979.0
01 17.09 ЮЗ 4 н/о н/о +15.5 +13.7 89 +14 +14 1018.5 980.2 +9.9
04 17.09 З 4 н/о н/о +23.3 +12.0 49 +26 +26 жарко 1017.0 978.7
07 17.09 З 6 н/о н/о +26.2 +7.7 31 +26 +26 жарко 1015.5 977.3
10 17.09 ЮЗ 6 н/о н/о +20.5 +12.2 59 +22 +22 комфорт 1017.2 978.9
13 17.09 ЮЗ 6 н/о н/о +15.2 +11.0 76 +14 +14 1019.6 981.2 +27.8
16 17.09 З 3 н/о н/о +12.9 +11.1 89 +12 +12 1018.9 980.6
19 17.09 З 3 н/о н/о +12.6 +11.7 94 +11 +11 1017.8 979.5
22 17.09 З 3 н/о н/о +12.7 +11.9 95 +11 +11 1018.0 979.7
01 18.09 З 5 н/о н/о +16.5 +9.7 64 +16 +16 1018.2 979.9 +11.5
04 18.09 СЗ 6 н/о н/о +21.8 +9.3 45 +23 +23 комфорт 1015.8 977.6
07 18.09 З 8 н/о н/о +23.4 +7.1 35 +24 +24 комфорт 1013.8 975.7
10 18.09 З 7 н/о н/о +17.9 +10.3 61 +17 +17 1014.7 976.5
13 18.09 З 5 н/о н/о +15.8 +11.8 77 +15 +15 1015.3 977.1 +24.3
16 18.09 З 5 н/о н/о +13.5 +11.2 86 +12 +12 1014.3 976.1
19 18.09 ЮЗ 6 н/о {туман} н/о +11.9 +10.1 89 +9 +9 1014.8 976.6
22 18.09 ЮЗ 5 н/о н/о +10.2 +7.8 85 +7 +7 1017.1 978.8
01 19.09 ЮЗ 6 н/о н/о +11.6 +6.1 69 +9 +9 1019.8 981.4 +9.5
04 19.09 Ю 8 н/о н/о +14.5 +4.8 52 +12 +12 1020.4 982.0
07 19.09 ЮЗ 7 н/о н/о +14.9 +4.0 48 +13 +13 1020.7 982.3
10 19.09 ЮЗ 5 н/о н/о +11.6 +1.5 50 +9 +9 1022.8 984.3
13 19.09 ЮЗ 4 н/о н/о +7.8 +3.1 72 +5 +5 1024.9 986.3 +16.5
16 19.09 Ю 4 н/о н/о +5.3 +2.1 80 +1 +1 1025.5 986.9
19 19.09 Ю 4 н/о н/о +3.5 +1.7 88 -1 -1 1026.0 987.4
22 19.09 Ю 2 н/о н/о +2.8 +1.6 92 -1 -1 1027.2 988.5
01 20.09 ЮВ 6 н/о н/о +10.7 +2.0 55 +8 +8 1028.0 989.3 +1.6
04 20.09 ЮВ 5 н/о н/о +15.1 +2.0 41 +14 +14 1026.7 988.1
07 20.09 ЮВ 5 н/о н/о +16.7 -0.9 30 +16 +16 1025.1 986.5
10 20.09 Ю 5 н/о н/о +13.5 -0.9 37 +12 +12 1026.0 987.4
13 20.09 Ю 4 н/о н/о +7.5 0.0 59 +4 +4 1027.4 988.7 +17.2
16 20.09 ЮВ 3 н/о н/о +5.2 +0.2 70 +2 +2 1027.3 988.6
19 20.09 Ю 4 н/о н/о +4.3 +0.8 78 0 0 1026.9 988.3
22 20.09 Ю 5 н/о н/о +3.4 +1.3 86 -2 -2 1028.2 989.5
01 21.09 В 6 н/о н/о +13.8 +2.4 46 +12 +12 1029.2 990.5 +3.3
04 21.09 ЮВ 5 н/о н/о +16.8 0.0 32 +16 +16 1027.7 989.0
07 21.09 В 6 н/о н/о +19.7 +0.2 27 +20 +20 1026.0 987.4
10 21.09 ЮВ 5 н/о н/о +15.5 -0.3 34 +14 +14 1026.7 988.1
13 21.09 Ю 5 н/о н/о +8.6 +1.1 59 +6 +6 1028.8 990.1 +20.1
16 21.09 Ю 5 н/о н/о +6.5 +1.2 69 +3 +3 1029.1 990.4
19 21.09 Ю 3 н/о н/о +4.7 +1.2 78 +1 +1 1028.9 990.2
22 21.09 Ю 4 н/о н/о +3.1 +1.3 88 -1 -1 1030.2 991.4
01 22.09 В 6 н/о н/о +14.7 +4.4 50 +13 +13 1031.1 992.3 +3.1
04 22.09 В 5 н/о н/о +19.8 +0.8 28 +20 +20 1029.2 990.5
07 22.09 Ю 4 н/о н/о +21.1 +0.3 25 +21 +21 комфорт 1027.5 988.8
10 22.09 ЮВ 4 н/о н/о +16.9 -0.3 31 +16 +16 1028.3 989.6
13 22.09 Ю 4 н/о н/о +10.4 +1.0 52 +8 +8 1029.5 990.8 +22.5
16 22.09 Ю 4 н/о н/о +9.2 +1.1 57 +7 +7 1029.3 990.6

 

Местоположение метеостанции Дауоллину (Западная Австралия, Австралия): широта -30.28 долгота 116.67 высота над уровнем моря 326 м.

В архиве по умолчанию представлена погода в Дауоллину за последнюю неделю. Архивные данные за месяц целиком и за предыдущие месяцы, начиная с января 2011 года, Вы можете получить, выбрав интересующий диапазон дат из раскрывающегося списка и нажав кнопку "Ввод!".


*Определитесь, кто Вы:
робот инопланетянин человек

Внимание! Время в таблицах - всемирное. Для получения местного времени необходимо прибавить поправку, которая равна 8 ч.

Смотрите также архив погоды в соседних городах и на ближайших метеорологических станциях:

Погода в Баджингарре (Западная Австралия, Австралия) (110 км)
Погода в Мораве (Западная Австралия, Австралия) (136 км)
Погода в Гингине (Западная Австралия, Австралия) (153 км)
Погода в Кандердине (Западная Австралия, Австралия) (158 км)
Погода в Буллсбрук Пирс (Западная Австралия, Австралия) (167 км)
Погода в Ошен Риф (Западная Австралия, Австралия) (187 км)
Погода в Гусберри Хилл (Западная Австралия, Австралия) (195 км)
Погода в Перте (Западная Австралия, Австралия) (196 км)
Погода в Перт Монт-Лоули (Западная Австралия, Австралия) (198 км)
Погода в Обсерватории Перт (Западная Австралия, Австралия) (200 км)

Пояснения к столбцам:

Ветер - указаны скорость ветра в м/с - средняя за 10 мин, порывы в срок и между сроками (в фигурных скобках) и направление, откуда дует ветер: С - северный, СВ - северо-восточный, В - восточный, ЮВ - юго-восточный, Ю - южный, ЮЗ - юго-западный, З - западный, СЗ - северо-западный.
Видимость - горизонтальная дальность видимости в метрах или километрах. При видимости от 1 до 10 км при отсутствии осадков обычно наблюдается дымка, при ухудшении видимости до 1 км и менее - туман. В сухую погоду видимость может ухудшаться дымом, пылью или мглою.
Явления - указаны атмосферные явления, наблюдавшиеся в срок или в последний час перед сроком; фигурными скобками обозначены явления, наблюдавшиеся между сроками (за 1-3 часа до срока); квадратными скобками обозначены град или гололедные отложения с указанием их диаметра в мм.
Облачность - указаны через наклонную черту общая и нижняя облачность в баллах и высота нижней границы облаков в метрах; квадратными скобками обозначены формы облаков: Ci - перистые, Cs - перисто-слоистые, Cc - перисто-кучевые, Ac - высококучевые, As - высокослоистые, Sc - слоисто-кучевые, Ns - слоисто-дождевые, Cu - кучевые, Cb - кучево-дождевые. Подробнее классификацию облаков см. в Атласе облаков (PDF).
T - Температура воздуха - температура, измеренная на высоте 2 м над землей.
Td - Температура точки росы - температура, при понижении до которой содержащийся в воздухе водяной пар достигнет насыщения.
f - Относительная влажность воздуха - влажноcть воздуха, измеренная на высоте 2 м над землей.
Te - Эффективная температура - температура, которую ощущает одетый по сезону человек в тени. Характеристика душности погоды. При расчете учитывается влияние влажности воздуха и скорости ветра на теплоощущения человека.
Tes - Эффективная температура на солнце - температура, которую ощущает человек, с поправкой на солнечный нагрев. Характеристика знойности погоды. Зависит от высоты солнца над горизонтом, облачности и скорости ветра. Ночью, в пасмурную погоду, а также при ветре 12 м/с и более поправка равна нулю.
P - Атмосферное давление - приведенное к уровню моря атмосферное давление.
Po - Атмосферное давление - измеренное на уровне метеостанции атмосферное давление.
Tmin - Минимальная температура - минимум температуры воздуха на высоте 2 м над землей.
Tmax - Максимальная температура - максимум температуры воздуха на высоте 2 м над землей.
R - Количество осадков - Количество выпавших осадков за период времени, мм. При наведении курсора мыши на число - период времени, за который выпало указанное количество осадков.
R24 - Количество осадков - Количество выпавших осадков за 24 часа, мм.
S - Снежный покров - Высота снежного покрова, см. При наведении курсора мыши на число - состояние снежного покрова и степень покрытия местности в баллах.